Location: *
(46.3500°N, 10.9000°E)
Time: 10:25:47
(UTC+00:00)

Vanguard 2 - Pass Details

Date: 03 December 2021
Orbit: 553 x 2936 km, 32.9° (Epoch: 18 January)

Event Time Altitude Azimuth Distance (km) Brightness Sun altitude
Rises 17:58:40 0° 259° (W) 4,210 12.7 -24.7°
Reaches altitude 10° 18:02:14 10° 242° (WSW) 3,612 11.8 -25.3°
Maximum altitude 18:08:30 19° 201° (SSW) 3,525 11.1 -26.4°
Drops below altitude 10° 18:16:43 10° 163° (SSE) 4,909 11.5 -27.8°
Sets 18:22:53 0° 149° (SSE) 6,315 11.9 -28.9°
